Mansfield, OH

5:39 AM EST on February 25, 2017 (GMT -0500)
Mansfield Lahm Regional

Weather History for KMFD - October, 2012

Change the Weather History Date:

Tuesday, October 9, 2012

  Actual Average Record
Temperature  
Mean Temperature 47 °F 54 °F  
Max Temperature 58 °F 64 °F 85 °F (1939)
Min Temperature 35 °F 44 °F 29 °F (1989)
Degree Days  
Heating Degree Days 18 11  
Month to date heating degree days 110 92  
Since 1 July heating degree days 271 242  
Cooling Degree Days 0 0  
Month to date cooling degree days 0 5  
Year to date cooling degree days 947 630  
Moisture  
Dew Point 37 °F    
Average Humidity 72    
Maximum Humidity 100    
Minimum Humidity 43    
Precipitation  
Precipitation 0.00 in 0.10 in 1.53 in (1990)
Month to date precipitation 2.24 0.87  
Year to date precipitation 30.42 35.02  
Snow  
Snow 0.00 in 0.00 in - ()
Month to date snowfall 0.0 0.0  
Since 1 July snowfall 0.0 0.0  
Since 1 September snowfall 0.0 0.0  
Snow Depth 0.00 in    
Sea Level Pressure  
Sea Level Pressure 30.10 in    
Wind  
Wind Speed 10 mph (South)    
Max Wind Speed 17 mph    
Max Gust Speed 23 mph    
Visibility 9 miles    
Events      
T = Trace of Precipitation, MM = Missing Value Source: NWS Daily Summary

Daily Weather History Graph

Daily Weather History Graph

Search for Another Location

Airport or City:

Trip Planner

Search our weather history database for the weather conditions in past years. The results will help you decide how hot, cold, wet, or windy it might be!

Date:

Astronomy

Oct. 09, 2012 Rise Set
Actual Time 7:35 AM EDT 6:58 PM EDT
Civil Twilight 7:07 AM EDT 7:25 PM EDT
Nautical Twilight 6:36 AM EDT 7:57 PM EDT
Astronomical Twilight 6:04 AM EDT 8:29 PM EDT
Moon 1:08 AM EDT (10/9) 3:27 PM EDT (10/9)
Length of Visible Light 12h 17m
Length of Day
11h 22m
Last Quarter, 37% of the Moon is Illuminated
Oct 9
Last Quarter
Oct 15
New
Oct 21
First Quarter
Oct 29
Full
Nov 6
Last Quarter

Hourly Weather History & Observations

Time (EDT) Temp. Windchill Dew Point Humidity Pressure Visibility Wind Dir Wind Speed Gust Speed Precip Events Conditions
12:52 AM 39.0 °F 33.4 °F 36.0 °F 89% 30.19 in 10.0 mi South 8.1 mph - N/A   Clear
1:52 AM 37.9 °F 32.1 °F 36.0 °F 93% 30.18 in 10.0 mi SSE 8.1 mph - N/A   Clear
2:52 AM 37.0 °F 31.6 °F 35.1 °F 93% 30.18 in 9.0 mi SSE 6.9 mph - N/A   Clear
3:52 AM 37.4 °F 32.8 °F 35.6 °F 93% 30.15 in 8.0 mi South 5.8 mph - N/A   Clear
4:52 AM 35.1 °F 30.1 °F 35.1 °F 100% 30.17 in 7.0 mi SSE 5.8 mph - N/A   Clear
5:52 AM 36.0 °F 30.3 °F 35.1 °F 97% 30.17 in 7.0 mi South 6.9 mph - N/A   Clear
6:52 AM 35.6 °F 30.7 °F 35.6 °F 100% 30.15 in 7.0 mi South 5.8 mph - N/A   Clear
7:52 AM 36.0 °F 31.1 °F 36.0 °F 100% 30.19 in 5.0 mi South 5.8 mph - N/A   Clear
8:52 AM 41.0 °F 37.1 °F 39.0 °F 93% 30.20 in 8.0 mi South 5.8 mph - N/A   Clear
9:52 AM 46.0 °F 41.0 °F 39.0 °F 76% 30.19 in 10.0 mi South 10.4 mph - N/A   Clear
10:52 AM 50.0 °F - 39.9 °F 68% 30.18 in 10.0 mi South 10.4 mph - N/A   Clear
11:52 AM 52.0 °F - 37.9 °F 59% 30.16 in 10.0 mi SSW 13.8 mph - N/A   Clear
12:52 PM 53.1 °F - 39.0 °F 59% 30.13 in 10.0 mi South 12.7 mph - N/A   Partly Cloudy
1:52 PM 55.0 °F - 39.0 °F 55% 30.10 in 10.0 mi South 11.5 mph 19.6 mph N/A   Partly Cloudy
2:52 PM 57.0 °F - 37.9 °F 49% 30.07 in 10.0 mi SSW 12.7 mph - N/A   Clear
3:52 PM 57.9 °F - 36.0 °F 44% 30.05 in 10.0 mi South 13.8 mph 18.4 mph N/A   Clear
4:52 PM 57.0 °F - 36.0 °F 45% 30.04 in 10.0 mi South 11.5 mph 19.6 mph N/A   Clear
5:52 PM 55.9 °F - 36.0 °F 47% 30.02 in 10.0 mi South 10.4 mph - N/A   Clear
6:52 PM 53.1 °F - 36.0 °F 52% 30.01 in 10.0 mi South 10.4 mph - N/A   Clear
7:52 PM 50.0 °F - 37.0 °F 61% 30.01 in 10.0 mi SSE 9.2 mph - N/A   Clear
8:52 PM 48.0 °F - 37.0 °F 66% 30.01 in 10.0 mi South 9.2 mph - N/A   Clear
9:52 PM 48.9 °F - 36.0 °F 61% 30.00 in 10.0 mi South 12.7 mph - N/A   Clear
10:52 PM 46.9 °F - 36.0 °F 66% 29.99 in 10.0 mi South 11.5 mph - N/A   Clear
11:52 PM 46.0 °F 40.2 °F 37.0 °F 71% 29.97 in 10.0 mi South 12.7 mph - N/A   Clear